Weather History for MDST - October, 2013

Change the Weather History Date:

Thursday, October 24, 2013

  Actual Average Record
Temperature  
Mean Temperature 78 °F -  
Max Temperature 84 °F 88 °F 93 °F (1999)
Min Temperature 71 °F 69 °F 69 °F (2010)
Cooling Degree Days 12    
Growing Degree Days 28 (Base 50)    
Moisture  
Dew Point 73 °F    
Average Humidity 88    
Maximum Humidity 100    
Minimum Humidity 73    
Precipitation  
Precipitation 0.00 in 0.16 in - ()
Sea Level Pressure  
Sea Level Pressure 29.95 in    
Wind  
Wind Speed 5 mph ()    
Max Wind Speed 18 mph    
Max Gust Speed -    
Visibility 5.9 miles    
Events Thunderstorm    
Averages and records for this station are not official NWS values.
T = Trace of Precipitation, MM = Missing Value Source: Averaged Metar Reports

Daily Weather History Graph

Daily Weather History Graph

Search for Another Location

Airport or City:

Trip Planner

Search our weather history database for the weather conditions in past years. The results will help you decide how hot, cold, wet, or windy it might be!

Date:

Astronomy

Oct. 24, 2013 Rise Set
Actual Time 6:39 AM AST 6:12 PM AST
Civil Twilight 6:17 AM AST 6:35 PM AST
Nautical Twilight 5:51 AM AST 7:01 PM AST
Astronomical Twilight 5:26 AM AST 7:26 PM AST
Moon 10:50 PM AST (10/24) 11:21 AM AST (10/24)
Length of Visible Light 12h 17m
Length of Day
11h 32m
Waning Gibbous, 71% of the Moon is Illuminated
Oct 24
Waning Gibbous
Oct 26
Last Quarter
Nov 3
New
Nov 10
First Quarter
Nov 17
Full

Hourly Weather History & Observations

Time (AST) Temp. Heat Index Dew Point Humidity Pressure Visibility Wind Dir Wind Speed Gust Speed Precip Events Conditions
12:00 AM 75.2 °F - 73.4 °F 94% 29.95 in 6.2 mi Calm Calm - N/A   Scattered Clouds
1:00 AM 75.2 °F - 73.4 °F 94% 29.95 in 6.2 mi SSE 5.8 mph - N/A   Scattered Clouds
2:00 AM 75.2 °F - 73.4 °F 94% 29.95 in 6.2 mi SSE 4.6 mph - N/A   Scattered Clouds
3:00 AM 73.4 °F - 73.4 °F 100% 29.92 in 6.2 mi Variable 3.5 mph - N/A   Scattered Clouds
4:00 AM 73.4 °F - 71.6 °F 94% 29.92 in 6.2 mi Calm Calm - N/A   Mostly Cloudy
5:00 AM 73 °F - 72 °F 98% 29.94 in 6 mi Calm Calm - -   Mostly Cloudy
5:00 AM 73.4 °F - 73.4 °F 100% 29.92 in 6.2 mi Calm Calm - N/A Thunderstorm Light Thunderstorm
6:00 AM 73.4 °F - 73.4 °F 100% 29.95 in 6.2 mi Variable 3.5 mph - N/A   Mostly Cloudy
7:00 AM 71.6 °F - 71.6 °F 100% 29.95 in 6.2 mi Calm Calm - N/A   Scattered Clouds
8:00 AM 71.6 °F - 71.6 °F 100% 29.95 in 2.5 mi Calm Calm - N/A   Mostly Cloudy
9:00 AM 75.2 °F - 73.4 °F 94% 29.98 in 3.1 mi ESE 4.6 mph - N/A   Mostly Cloudy
10:00 AM 78.8 °F - 73.4 °F 83% 29.98 in 6.2 mi ESE 9.2 mph - N/A   Mostly Cloudy
11:00 AM 80.6 °F 85.4 °F 73.4 °F 79% 29.98 in 6.2 mi SE 9.2 mph - N/A   Mostly Cloudy
12:00 PM 80.6 °F 85.4 °F 73.4 °F 79% 29.98 in 6.2 mi ESE 13.8 mph - N/A   Mostly Cloudy
1:00 PM 82.4 °F 88.2 °F 73.4 °F 74% 29.95 in 6.2 mi SE 13.8 mph - N/A   Mostly Cloudy
2:00 PM 81 °F - 74 °F 73% 29.95 in 6 mi ESE 17.9 mph - -   Haze
2:00 PM 80.6 °F 85.4 °F 73.4 °F 79% 29.95 in 6.2 mi ESE 18.4 mph - N/A   Mostly Cloudy
3:00 PM 80.6 °F 85.4 °F 73.4 °F 79% 29.92 in 6.2 mi ESE 12.7 mph - N/A   Mostly Cloudy
4:00 PM 80.6 °F 85.4 °F 73.4 °F 79% 29.89 in 6.2 mi ESE 12.7 mph - N/A   Overcast
5:00 PM 80 °F - 75 °F 79% 29.93 in 6 mi ESE 8.9 mph - -   Haze
5:00 PM 80.6 °F 86.2 °F 75.2 °F 84% 29.92 in 6.2 mi ESE 9.2 mph - N/A   Overcast
6:00 PM 78.8 °F - 75.2 °F 89% 29.92 in 6.2 mi East 10.4 mph - N/A   Overcast
7:00 PM 78.8 °F - 73.4 °F 83% 29.92 in 6.2 mi ESE 6.9 mph - N/A   Mostly Cloudy
8:00 PM 78.8 °F - 73.4 °F 83% 29.95 in 6.2 mi ESE 6.9 mph - N/A   Mostly Cloudy
9:00 PM 77.0 °F - 73.4 °F 89% 29.95 in 6.2 mi East 9.2 mph - N/A Thunderstorm Thunderstorm
10:00 PM 77.0 °F - 75.2 °F 94% 29.98 in 6.2 mi East 8.1 mph - N/A   Scattered Clouds
11:00 PM 77.0 °F - 73.4 °F 89% 29.98 in 6.2 mi SE 6.9 mph - N/A Thunderstorm Thunderstorm